Delta Virtual Airport Information Service

Cincinnati Northern Kentucky International Airport

ICAO: KCVG Country: United States
Latitude: 39.0488 Longitude: -84.6678
Latest Arrival : DAL1302 (2B) (KTPA-KCVG) Latest Departure : AAL9473 (B) (KCVG-KDCA)


WX CaptureLIVE
Data provided by noaa.gov | Fetched at 07:39:21

METAR : KCVG 061252Z 35006KT 10SM CLR M01/M08 A3032 RMK AO2 SLP272 T10111078

TAF : KCVG 061158Z 0612/0718 33007KT P6SM SCT250 FM061700 31010KT P6SM FEW050 FM070000 33005KT P6SM SCT250


Runway Data for KCVG
Data provided by openaviationdata.com

Runway ID Mag Var Hdg Length Elevation Surface ILS Freq ILS Id ILS Slope
9 -4 94° 11984 ft 896 ft Asphalt 111.9 IURN 3
18L -4 184° 10010 ft 896 ft Concrete 110.15 ICIZ 3
18R -4 184° 11010 ft 896 ft Asphalt 111.55 ISIC 3
27 -4 274° 11984 ft 896 ft Asphalt 108.7 IJDP 3
36L -4 11010 ft 896 ft Asphalt 109.9 ICVG 3
36R -4 10010 ft 896 ft Concrete 110.35 IEEI 3

Cincinnati Northern Kentucky International Airport, United States
Use only for reference purposes



Not for navigational purposes.